• In Hungary
  • List of Countries
  • For 7 days
  • Water Temperature
  • Satellite Maps
  • Weather Map
  • News
  • Weather Widgets
  • user-avatar
    Login

    Hourly Weather Cherkino

    Today, 19 September, Wednesday

    Time Temperature Precipitation Wind Pressure Humidity
    00:00 +11°C° 0 mm 4 mps 751 mmHg 84%
    01:00 +10°C° 0 mm 4 mps 751 mmHg 85%
    02:00 +10°C° 0 mm 3 mps 752 mmHg 86%
    03:00 +9°C° 0 mm 2 mps 752 mmHg 92%
    04:00 +9°C° 0 mm 3 mps 752 mmHg 91%
    05:00 +9°C° 0 mm 3 mps 752 mmHg 90%
    06:00 +8°C° 0 mm 3 mps 752 mmHg 90%
    07:00 +10°C° 0 mm 4 mps 752 mmHg 83%
    08:00 +11°C° 0 mm 4 mps 753 mmHg 76%
    09:00 +13°C° 0 mm 5 mps 753 mmHg 67%
    10:00 +14°C° 0 mm 5 mps 753 mmHg 62%
    11:00 +15°C° 0 mm 5 mps 753 mmHg 57%
    12:00 +17°C° 0 mm 6 mps 753 mmHg 51%
    13:00 +17°C° 0 mm 5 mps 753 mmHg 54%
    14:00 +17°C° 0 mm 5 mps 752 mmHg 57%
    15:00 +17°C° 0 mm 5 mps 752 mmHg 60%
    16:00 +18°C° 0 mm 4 mps 752 mmHg 63%
    17:00 +17°C° 0 mm 3 mps 752 mmHg 67%
    18:00 +17°C° 0 mm 3 mps 752 mmHg 71%
    19:00 +17°C° 0 mm 3 mps 752 mmHg 75%
    20:00 +17°C° 0 mm 4 mps 752 mmHg 78%
    21:00 +15°C° 0 mm 4 mps 752 mmHg 82%
    22:00 +15°C° 0 mm 4 mps 752 mmHg 84%
    23:00 +15°C° 0 mm 4 mps 752 mmHg 86%

    Tomorrow, 20 September, Thursday

    Time Temperature Precipitation Wind Pressure Humidity
    00:00 +15°C° 0 mm 4 mps 751 mmHg 88%
    01:00 +14°C° 0 mm 4 mps 751 mmHg 89%
    02:00 +14°C° 0 mm 4 mps 751 mmHg 91%
    03:00 +13°C° 0 mm 3 mps 751 mmHg 92%
    04:00 +13°C° 0 mm 3 mps 751 mmHg 93%
    05:00 +13°C° 0 mm 3 mps 751 mmHg 94%
    06:00 +13°C° 0 mm 3 mps 751 mmHg 95%
    07:00 +14°C° 0 mm 3 mps 751 mmHg 90%
    08:00 +17°C° 0 mm 4 mps 751 mmHg 85%
    09:00 +18°C° 0 mm 4 mps 751 mmHg 80%
    10:00 +20°C° 0 mm 5 mps 751 mmHg 74%
    11:00 +21°C° 0 mm 5 mps 751 mmHg 68%
    12:00 +23°C° 0 mm 6 mps 751 mmHg 62%
    13:00 +24°C° 0 mm 6 mps 751 mmHg 60%
    14:00 +24°C° 0 mm 6 mps 751 mmHg 58%
    15:00 +24°C° 0 mm 6 mps 751 mmHg 57%
    16:00 +23°C° 0 mm 5 mps 751 mmHg 62%
    17:00 +22°C° 0 mm 4 mps 751 mmHg 67%
    18:00 +21°C° 0 mm 3 mps 751 mmHg 72%
    19:00 +20°C° 0 mm 3 mps 751 mmHg 75%
    20:00 +19°C° 0 mm 3 mps 751 mmHg 77%
    21:00 +18°C° 0 mm 4 mps 752 mmHg 80%
    22:00 +17°C° 0 mm 3 mps 752 mmHg 83%
    23:00 +16°C° 0 mm 3 mps 752 mmHg 87%

    Day after tomorrow, 21 September, Friday

    Time Temperature Precipitation Wind Pressure Humidity
    00:00 +14°C° 0 mm 3 mps 753 mmHg 91%
    01:00 +14°C° 0 mm 2 mps 753 mmHg 92%
    02:00 +13°C° 0 mm 2 mps 753 mmHg 93%
    03:00 +13°C° 0 mm 2 mps 754 mmHg 94%
    04:00 +13°C° 0 mm 2 mps 754 mmHg 95%
    05:00 +12°C° 0 mm 2 mps 754 mmHg 95%
    06:00 +12°C° 0 mm 2 mps 755 mmHg 95%
    07:00 +14°C° 0 mm 2 mps 755 mmHg 88%
    08:00 +15°C° 0 mm 2 mps 755 mmHg 82%
    09:00 +17°C° 0 mm 2 mps 755 mmHg 75%
    10:00 +19°C° 0 mm 2 mps 756 mmHg 70%
    11:00 +20°C° 0 mm 2 mps 756 mmHg 64%
    12:00 +23°C° 0 mm 2 mps 756 mmHg 59%
    13:00 +23°C° 0 mm 2 mps 756 mmHg 57%
    14:00 +24°C° 0 mm 2 mps 756 mmHg 55%
    15:00 +25°C° 0 mm 2 mps 756 mmHg 53%
    16:00 +23°C° 0 mm 2 mps 756 mmHg 59%
    17:00 +22°C° 0 mm 1 mps 756 mmHg 64%
    18:00 +21°C° 0 mm 1 mps 756 mmHg 70%
    19:00 +20°C° 0 mm 1 mps 756 mmHg 72%
    20:00 +17°C° 0 mm 0 mps 756 mmHg 75%
    21:00 +16°C° 0 mm 0 mps 757 mmHg 78%
    22:00 +18°C° 0 mm 1 mps 757 mmHg 79%
    23:00 +18°C° 0 mm 1 mps 757 mmHg 81%

    22 September, Saturday

    Time Temperature Precipitation Wind Pressure Humidity
    00:00 +16°C° 0 mm 1 mps 757 mmHg 82%
    01:00 +16°C° 0 mm 1 mps 757 mmHg 84%
    02:00 +16°C° 0 mm 1 mps 757 mmHg 85%
    03:00 +15°C° 0 mm 2 mps 757 mmHg 87%
    04:00 +15°C° 0 mm 2 mps 757 mmHg 88%
    05:00 +15°C° 0 mm 2 mps 757 mmHg 89%
    06:00 +15°C° 0 mm 2 mps 757 mmHg 90%
    07:00 +16°C° 0 mm 2 mps 757 mmHg 84%
    08:00 +18°C° 0 mm 2 mps 757 mmHg 78%
    09:00 +19°C° 0 mm 3 mps 757 mmHg 71%
    10:00 +21°C° 0 mm 3 mps 757 mmHg 66%
    11:00 +22°C° 0 mm 3 mps 757 mmHg 60%
    12:00 +25°C° 0 mm 3 mps 757 mmHg 55%
    13:00 +25°C° 0 mm 3 mps 756 mmHg 53%
    14:00 +25°C° 0 mm 3 mps 756 mmHg 52%
    15:00 +26°C° 0 mm 4 mps 756 mmHg 50%
    16:00 +24°C° 0 mm 3 mps 756 mmHg 55%
    17:00 +22°C° 0 mm 3 mps 755 mmHg 60%
    18:00 +20°C° 0 mm 3 mps 755 mmHg 66%
    19:00 +20°C° 0 mm 3 mps 755 mmHg 68%
    20:00 +19°C° 0 mm 3 mps 755 mmHg 70%
    21:00 +18°C° 0 mm 3 mps 755 mmHg 71%
    22:00 +18°C° 0 mm 3 mps 755 mmHg 72%
    23:00 +17°C° 0 mm 3 mps 755 mmHg 73%

    23 September, Sunday

    Time Temperature Precipitation Wind Pressure Humidity
    00:00 +17°C° 0 mm 3 mps 755 mmHg 74%
    01:00 +17°C° 0 mm 3 mps 755 mmHg 75%
    02:00 +16°C° 0 mm 3 mps 754 mmHg 75%
    03:00 +16°C° 0 mm 3 mps 754 mmHg 76%
    04:00 +15°C° 0 mm 4 mps 754 mmHg 76%
    05:00 +15°C° 0 mm 4 mps 754 mmHg 77%
    06:00 +14°C° 0 mm 4 mps 753 mmHg 77%
    07:00 +16°C° 0 mm 5 mps 753 mmHg 72%
    08:00 +17°C° 0 mm 5 mps 753 mmHg 68%
    09:00 +19°C° 0 mm 5 mps 753 mmHg 64%
    10:00 +21°C° 0 mm 6 mps 752 mmHg 58%
    11:00 +23°C° 0 mm 6 mps 752 mmHg 53%
    12:00 +24°C° 0 mm 7 mps 751 mmHg 47%
    13:00 +26°C° 0 mm 7 mps 751 mmHg 45%
    14:00 +26°C° 0 mm 7 mps 750 mmHg 43%
    15:00 +26°C° 0 mm 6 mps 749 mmHg 41%
    16:00 +24°C° 0 mm 6 mps 749 mmHg 45%
    17:00 +23°C° 0 mm 5 mps 748 mmHg 49%
    18:00 +22°C° 0 mm 5 mps 747 mmHg 53%
    19:00 +22°C° 0 mm 6 mps 747 mmHg 53%
    20:00 +22°C° 0 mm 7 mps 747 mmHg 53%
    21:00 +22°C° 0 mm 8 mps 746 mmHg 52%
    22:00 +20°C° 0.4 mm 7 mps 746 mmHg 58%
    23:00 +18°C° 0.4 mm 7 mps 746 mmHg 64%

    24 September, Monday

    Time Temperature Precipitation Wind Pressure Humidity
    00:00 +17°C° 0.4 mm 6 mps 746 mmHg 70%
    01:00 +15°C° 1 mm 6 mps 746 mmHg 76%
    02:00 +13°C° 1 mm 6 mps 746 mmHg 81%
    03:00 +10°C° 1 mm 6 mps 747 mmHg 86%
    04:00 +10°C° 0.3 mm 6 mps 747 mmHg 85%
    05:00 +10°C° 0.3 mm 6 mps 748 mmHg 84%
    06:00 +10°C° 0.3 mm 6 mps 748 mmHg 83%
    07:00 +10°C° 0.1 mm 6 mps 749 mmHg 82%
    08:00 +10°C° 0.1 mm 6 mps 749 mmHg 82%
    09:00 +10°C° 0.1 mm 6 mps 750 mmHg 81%
    10:00 +11°C° 0 mm 6 mps 750 mmHg 78%
    11:00 +11°C° 0 mm 6 mps 751 mmHg 74%
    12:00 +13°C° 0 mm 6 mps 751 mmHg 70%
    13:00 +14°C° 0 mm 6 mps 752 mmHg 65%
    14:00 +15°C° 0 mm 6 mps 752 mmHg 60%
    15:00 +16°C° 0 mm 6 mps 752 mmHg 54%
    16:00 +15°C° 0 mm 5 mps 753 mmHg 58%
    17:00 +14°C° 0 mm 4 mps 753 mmHg 62%
    18:00 +13°C° 0 mm 3 mps 753 mmHg 66%
    19:00 +13°C° 0 mm 2 mps 753 mmHg 68%
    20:00 +12°C° 0 mm 2 mps 754 mmHg 70%
    21:00 +12°C° 0 mm 2 mps 754 mmHg 72%
    22:00 +10°C° 0 mm 2 mps 754 mmHg 73%
    23:00 +10°C° 0 mm 2 mps 754 mmHg 75%
    Show more